Cecil Field, FL

1:46 AM EDT on May 25, 2017 (GMT -0400)
Cecil

Weather History for KVQQ - November, 2013

Change the Weather History Date:

Saturday, November 2, 2013

  Actual Average (KNIP) Record (KNIP)
Temperature  
Mean Temperature 62 °F -  
Max Temperature 75 °F 74 °F 91 °F (2015)
Min Temperature 50 °F 58 °F 43 °F (2014)
Degree Days  
Heating Degree Days 2    
Growing Degree Days 12 (Base 50)    
Moisture  
Dew Point -    
Average Humidity    
Maximum Humidity    
Minimum Humidity    
Precipitation  
Precipitation 1.62 in - - ()
Sea Level Pressure  
Sea Level Pressure 29.89 in    
Wind  
Wind Speed 6 mph (West)    
Max Wind Speed 13 mph    
Max Gust Speed -    
Visibility 7 miles    
Events Rain , Thunderstorm    
Averages and records for this station are not official NWS values.
T = Trace of Precipitation, MM = Missing Value Source: NWS Daily Summary

Daily Weather History Graph

Daily Weather History Graph

Search for Another Location

Airport or City:

Trip Planner

Search our weather history database for the weather conditions in past years. The results will help you decide how hot, cold, wet, or windy it might be!

Date:

Astronomy

Nov. 02, 2013 Rise Set
Actual Time 7:42 AM EDT 6:39 PM EDT
Civil Twilight 7:17 AM EDT 7:03 PM EDT
Nautical Twilight 6:49 AM EDT 7:32 PM EDT
Astronomical Twilight 6:21 AM EDT 8:00 PM EDT
Moon 6:41 AM EDT (11/2) 6:08 PM EDT (11/2)
Length of Visible Light 11h 46m
Length of Day
10h 56m
Waning Crescent, 1% of the Moon is Illuminated
Nov 2
Waning Crescent
Nov 3
New
Nov 10
First Quarter
Nov 17
Full
Nov 25
Last Quarter

Hourly Weather History & Observations

Time (EDT) Temp. Dew Point Humidity Pressure Visibility Wind Dir Wind Speed Gust Speed Precip Events Conditions
12:15 AM 75.2 °F - N/A% 29.84 in 10.0 mi South 9.2 mph - N/A   Clear
12:35 AM 73.4 °F - N/A% 29.85 in 5.0 mi South 8.1 mph - N/A Rain , Thunderstorm Light Rain
12:55 AM 73.4 °F - N/A% 29.84 in 4.0 mi South 5.8 mph - 0.01 in Rain Light Rain
1:15 AM 73.4 °F - N/A% 29.83 in 5.0 mi South 6.9 mph - N/A Rain , Thunderstorm Light Rain
1:35 AM 73.4 °F - N/A% 29.84 in 2.5 mi South 8.1 mph - 0.02 in Rain , Thunderstorm Light Thunderstorms and Rain
1:55 AM 73.4 °F - N/A% 29.85 in 1.2 mi West 6.9 mph - 0.22 in Rain , Thunderstorm Heavy Thunderstorms and Rain
2:15 AM 71.6 °F - N/A% 29.83 in 1.2 mi SW 5.8 mph - 0.26 in Rain Heavy Rain
2:35 AM 71.6 °F - N/A% 29.82 in 0.5 mi SSW 10.4 mph - 1.01 in Rain Heavy Rain
2:55 AM 71.6 °F - N/A% 29.81 in 5.0 mi SSW 8.1 mph - 1.21 in Rain Light Rain
3:15 AM 71.6 °F - N/A% 29.81 in 3.0 mi SSW 8.1 mph - 0.01 in Rain Light Rain
3:35 AM 71.6 °F - N/A% 29.81 in 3.0 mi SW 5.8 mph - 0.05 in Rain Light Rain
3:55 AM 68.0 °F - N/A% 29.81 in 3.0 mi NW 12.7 mph - 0.09 in Rain Rain
4:15 AM 68.0 °F - N/A% 29.81 in 10.0 mi NW 9.2 mph - N/A Rain Light Rain
4:35 AM 68.0 °F - N/A% 29.82 in 10.0 mi WNW 5.8 mph - N/A   Overcast
4:55 AM 68.0 °F - N/A% 29.82 in 10.0 mi West 5.8 mph - N/A   Overcast
5:15 AM 66.2 °F - N/A% 29.82 in 3.0 mi Calm Calm - 0.01 in Rain Light Rain
5:35 AM 66.2 °F - N/A% 29.81 in 4.0 mi NW 5.8 mph - 0.03 in Rain Light Rain
5:55 AM 66.2 °F - N/A% 29.83 in 7.0 mi WNW 3.5 mph - 0.04 in Rain Light Rain
6:15 AM 66.2 °F - N/A% 29.84 in 3.0 mi West 5.8 mph - N/A Rain Light Rain
6:35 AM 66.2 °F - N/A% 29.84 in 3.0 mi WNW 5.8 mph - 0.05 in Rain Light Rain
6:50 AM 66.2 °F - N/A% 29.85 in 7.0 mi Calm Calm - N/A   Mostly Cloudy
7:50 AM 66.2 °F - N/A% 29.86 in 5.0 mi Calm Calm - N/A Rain Rain
8:50 AM 64.4 °F - N/A% 29.88 in 7.0 mi Calm Calm - N/A   Mostly Cloudy
9:15 AM 64.4 °F - N/A% 29.89 in 10.0 mi Calm Calm - N/A   Mostly Cloudy
9:50 AM 64.4 °F - N/A% 29.91 in 10.0 mi NNW 5.8 mph - N/A   Scattered Clouds
10:50 AM 66.2 °F - N/A% 29.91 in 10.0 mi NW 4.6 mph - N/A   Clear
11:50 AM 66.2 °F - N/A% 29.90 in 10.0 mi Calm Calm - N/A   Clear
12:50 PM 68.0 °F - N/A% 29.91 in 10.0 mi Calm Calm - N/A   Clear
1:50 PM 68.0 °F - N/A% 29.89 in 10.0 mi WNW 11.5 mph - N/A   Clear
2:50 PM 68.0 °F - N/A% 29.87 in 10.0 mi NW 11.5 mph - N/A   Clear
3:50 PM 68.0 °F - N/A% 29.85 in 10.0 mi NW 11.5 mph - N/A   Clear
6:50 PM 62.6 °F - N/A% 29.91 in 10.0 mi Calm Calm - N/A   Clear
7:50 PM 55.4 °F - N/A% 29.95 in 10.0 mi Calm Calm - N/A   Clear
8:15 PM 55.4 °F - N/A% 29.96 in 10.0 mi Calm Calm - N/A   Clear
8:35 PM 55.4 °F - N/A% 29.96 in 10.0 mi Calm Calm - N/A   Clear
8:55 PM 53.6 °F - N/A% 29.97 in 10.0 mi Calm Calm - N/A   Clear
9:15 PM 53.6 °F - N/A% 29.97 in 10.0 mi Calm Calm - N/A   Clear
9:35 PM 53.6 °F - N/A% 29.98 in 8.0 mi Calm Calm - N/A   Clear
9:55 PM 53.6 °F - N/A% 29.98 in 8.0 mi Calm Calm - N/A   Clear
10:15 PM 53.6 °F - N/A% 29.99 in 8.0 mi Calm Calm - N/A   Clear
10:35 PM 51.8 °F - N/A% 29.99 in 8.0 mi Calm Calm - N/A   Clear
10:55 PM 51.8 °F - N/A% 29.99 in 2.5 mi Calm Calm - N/A   Clear
11:15 PM 51.8 °F - N/A% 29.99 in 7.0 mi Calm Calm - N/A   Clear
11:35 PM 50.0 °F - N/A% 29.99 in 8.0 mi Calm Calm - N/A   Clear
11:55 PM 50.0 °F - N/A% 29.99 in 6.0 mi Calm Calm - N/A   Haze